Quillayute, WA
on Tuesday, January 1, 2013

Tuesday
Previous Day Next Day
Daily Summary
 ActualAverageRecord
Temperature
Mean Temperature °F 41°F  
Max Temperature 44°F 46°F 58°F (2002)
Min Temperature 30°F 35°F 10°F (1979)
Degree Days
Heating Degree Days 28 24  
Month to date heating degree days 24  
Since 1 July heating degree days 2502  
Cooling Degree Days 0 0  
Month to date cooling degree days 0  
Year to date cooling degree days 0  
Moisture
Dew Point 34°F   
Average Humidity 92    
Maximum Humidity 100    
Minimum Humidity 80    
Precipitation
Precipitation 0.00 in 0.46 in 2.82 in (2003)
Month to date precipitation 0.46  
Year to date precipitation 0.46  
Wind
Wind Speed 4 mph   
Max Wind Speed 9 mph   
Max Gust Speed 13 mph   
Visibility 5 miles   
Events     

Key: T is trace of precipitation, MM is missing value
Source: NWS Daily Summary
Time(PST)TemperatureDew PointHumidity Pressure Visibility Wind DirectionWind SpeedGust SpeedPrecipitationEvents Conditions
12:53 AM 37.0°F 35.1°F 93% 30.43 in 6.0 miles ENE 5.8 mph - N/A   Overcast
1:53 AM 37.0°F 36.0°F 96% 30.43 in 6.0 miles East 4.6 mph - N/A   Overcast
2:53 AM 36.0°F 34.0°F 93% 30.42 in 6.0 miles East 5.8 mph - N/A   Mostly Cloudy
3:00 AM 35.6°F 33.8°F 93% 30.41 in 6.0 miles East 5.8 mph - N/A   Scattered Clouds
3:53 AM 35.1°F 34.0°F 96% 30.41 in 6.0 miles East 4.6 mph - N/A   Partly Cloudy
4:53 AM 33.1°F 32.0°F 96% 30.42 in 6.0 miles ESE 3.5 mph - N/A   Clear
5:10 AM 30.2°F 30.2°F 100% 30.41 in 5.0 miles Calm Calm - N/A   Partly Cloudy
5:53 AM 32.0°F 32.0°F 100% 30.42 in 6.0 miles Calm Calm - N/A   Clear
6:01 AM 33.8°F 33.8°F 100% 30.41 in 6.0 miles Calm Calm - N/A   Partly Cloudy
6:40 AM 30.2°F 30.2°F 100% 30.43 in 2.5 miles Calm Calm - N/A   Clear
6:48 AM 30.2°F 30.2°F 100% 30.43 in 5.0 miles Calm Calm - N/A   Clear
6:53 AM 30.0°F 30.0°F 100% 30.44 in 5.0 miles Calm Calm - N/A   Clear
7:53 AM 30.9°F 30.0°F 96% 30.43 in 6.0 miles ESE 3.5 mph - N/A   Clear
8:53 AM 30.9°F 30.0°F 96% 30.45 in 3.0 miles Calm Calm - N/A   Clear
9:01 AM 30.2°F 30.2°F 100% 30.44 in 2.0 miles Calm Calm - N/A   Clear
9:26 AM 33.8°F 33.8°F 100% 30.45 in 3.0 miles Calm Calm - N/A   Clear
9:53 AM 35.1°F 34.0°F 96% 30.45 in 5.0 miles Calm Calm - N/A   Clear
10:53 AM 39.0°F 36.0°F 89% 30.44 in 5.0 miles Calm Calm - N/A   Clear
11:53 AM 42.1°F 37.9°F 85% 30.41 in 5.0 miles East 5.8 mph - N/A   Clear
12:53 PM 43.0°F 37.0°F 80% 30.40 in 5.0 miles East 5.8 mph - N/A   Haze
1:53 PM 43.0°F 37.9°F 82% 30.38 in 5.0 miles ENE 6.9 mph - N/A   Haze
2:53 PM 42.1°F 37.0°F 82% 30.38 in 5.0 miles NE 5.8 mph - N/A   Haze
3:53 PM 39.9°F 36.0°F 86% 30.37 in 5.0 miles NE 5.8 mph - N/A   Clear
4:53 PM 37.9°F 35.1°F 89% 30.35 in 6.0 miles ENE 8.1 mph - N/A   Clear
5:53 PM 37.0°F 35.1°F 93% 30.32 in 6.0 miles NE 5.8 mph - N/A   Clear
6:53 PM 37.0°F 34.0°F 89% 30.32 in 6.0 miles East 3.5 mph - N/A   Clear
7:53 PM 36.0°F 33.1°F 89% 30.30 in 6.0 miles ENE 4.6 mph - N/A   Clear
8:53 PM 35.1°F 33.1°F 92% 30.30 in 6.0 miles ENE 4.6 mph - N/A   Clear
9:53 PM 37.0°F 34.0°F 89% 30.28 in 6.0 miles ENE 3.5 mph - N/A   Clear
10:53 PM 37.0°F 34.0°F 89% 30.28 in 6.0 miles Variable 3.5 mph - N/A   Clear
11:53 PM 36.0°F 34.0°F 93% 30.28 in 6.0 miles Calm Calm - N/A   Clear
Moon Phase
Jan. 01 Jan. 04 Jan. 11 Jan. 18 Jan. 26
Sunrise:08:07 AM (PST) Moon Rise:09:35 PM (PST)1/1
Sunset:04:36 PM (PST) Moon Set:10:02 AM (PST)1/1

Copyright © 2014 The Weather Underground, Inc.